This is the latest recevied weather packets stored in our database for station/object KC3ROS. If no packets are shown the sender has not sent any weather packets the latest 10 day(s).
| Time | Temp. | Humidity | Pressure | Rain* | Wind** | Luminosity | Snow |
|---|---|---|---|---|---|---|---|
| 1778085164 | 9.44° C | 99% | 1008.9 hPa | 0 mm | - | 442 W/m² | - |
| 1778084861 | 8.89° C | 99% | 1008.9 hPa | 0 mm | - | 389 W/m² | - |
| 1778084558 | 9.44° C | 99% | 1008.8 hPa | 0 mm | - | 158 W/m² | - |
| 1778084250 | 8.89° C | 99% | 1008.8 hPa | 0 mm | - | 113 W/m² | - |
| 1778083947 | 9.44° C | 99% | 1008.7 hPa | 0 mm | - | 63 W/m² | - |
| 1778083645 | 8.89° C | 99% | 1008.6 hPa | 0 mm | - | 75 W/m² | - |
| 1778083341 | 8.89° C | 99% | 1008.8 hPa | 0 mm | - | 192 W/m² | - |
| 1778083040 | 8.89° C | 99% | 1008.7 hPa | 0 mm | - | 182 W/m² | - |
| 1778082736 | 8.89° C | 99% | 1008.5 hPa | 0 mm | - | 113 W/m² | - |
| 1778081598 | 8.89° C | 99% | 1008.2 hPa | 0 mm | - | 106 W/m² | - |
| 1778081295 | 8.89° C | 99% | 1008.4 hPa | 0 mm | - | 88 W/m² | - |
| 1778080992 | 8.33° C | 99% | 1008 hPa | 0 mm | - | 118 W/m² | - |
| 1778080691 | 8.89° C | 99% | 1008 hPa | 0 mm | - | 54 W/m² | - |
| 1778080387 | 8.89° C | 99% | 1008 hPa | 0 mm | - | 71 W/m² | - |
| 1778080084 | 8.89° C | 99% | 1007.8 hPa | 0 mm | - | 96 W/m² | - |
| 1778079781 | 8.89° C | 99% | 1007.7 hPa | 0 mm | - | 132 W/m² | - |
| 1778079478 | 8.33° C | 99% | 1007.7 hPa | 0 mm | - | 186 W/m² | - |
| 1778079174 | 8.89° C | 99% | 1007.7 hPa | 0 mm | - | 93 W/m² | - |
| 1778078872 | 8.89° C | 99% | 1007.6 hPa | 0 mm | - | 118 W/m² | - |
| 1778078569 | 8.89° C | 99% | 1007.5 hPa | 0 mm | - | 133 W/m² | - |
| 1778078266 | 8.33° C | 99% | 1007.2 hPa | 0 mm | - | 211 W/m² | - |
| 1778077963 | 8.33° C | 99% | 1007.2 hPa | 0 mm | - | 235 W/m² | - |
| 1778077662 | 8.33° C | 99% | 1007.3 hPa | 0 mm | - | 147 W/m² | - |
| 1778077360 | 8.33° C | 99% | 1007.3 hPa | 0 mm | - | 99 W/m² | - |
| 1778077058 | 8.33° C | 99% | 1007.3 hPa | 0 mm | - | 91 W/m² | - |
* Rain latest hour (hover to see other rain measurements)
** Current wind speed in m/s (hover to see current wind gust speed)